Flag for U.S.A. Weather past 2 weeks in Irving, Texas, U.S.A.

Now
97 °F

Scattered clouds.


Feels Like: 95 °F
Forecast: 77 / 96 °F
Wind: 8 mph from Southeast

Location: Dallas / Fort Worth International Airport

Current Time: Aug 2, 2015 at 3:24:11 PM

Latest Report: Aug 2, 2015 at 2:53 PM


Visibility: 10 mi

Pressure: 29.88 "Hg

Humidity: 24%

Dew point: 54 °F

Location of IrvingLocation

Historic Weather in Irving — Graph

°F

Irving temperature yesterday

Maximum temperature yesterday: 97 °F (at 5:53 PM)
Minimum temperature yesterday: 78 °F (at 5:53 AM)
Average temperature yesterday: 88 °F

Past Weeks' High & Low Weather Summary

 TemperatureHumidityPressure
High102 °F (Jul 30, 3:53 PM)79% (Jul 20, 6:53 AM)30.07 "Hg (Jul 20, 6:53 AM)
Low77 °F (Aug 2, 6:53 AM)22% (Aug 1, 5:53 PM)29.76 "Hg (Jul 21, 6:53 PM)
Average89 °F48%29.91 "Hg
* Reported Jul 18 1:53 PM — Aug 2 1:53 PM, Irving, Weather by CustomWeather, © 2015

Note: Actual official high and low records may vary slightly from our data, if they occured in-between our weather recording intervals... More about our weather records

Advertising

Irving weather history for previous 24 hours

 ConditionsComfort  
Time TempWeatherWind HumidityBarometerVisibility
1:53 PM
Sun, Aug 2
96 °FScattered clouds.13 mph24%29.90 "Hg10 mi
12:53 PM93 °FScattered clouds.9 mph28%29.92 "Hg10 mi
11:53 AM93 °FScattered clouds.13 mph28%29.94 "Hg10 mi
10:53 AM91 °FBroken clouds.12 mph32%29.94 "Hg10 mi
9:53 AM88 °FBroken clouds.7 mph38%29.95 "Hg10 mi
8:53 AM84 °FPartly sunny.8 mph43%29.94 "Hg10 mi
7:53 AM82 °FBroken clouds.7 mph48%29.93 "Hg10 mi
6:53 AM77 °FPartly cloudy.6 mph56%29.91 "Hg10 mi
5:53 AM80 °FPassing clouds.3 mph49%29.90 "Hg10 mi
4:53 AM82 °FOvercast.7 mph43%29.89 "Hg10 mi
3:53 AM84 °FOvercast.7 mph40%29.90 "Hg10 mi
2:53 AM85 °FOvercast.9 mph39%29.91 "Hg10 mi
1:53 AM86 °FPassing clouds.9 mph36%29.91 "Hg10 mi
12:53 AM85 °FPassing clouds.7 mph42%29.92 "Hg10 mi
11:53 PM
Sat, Aug 1
86 °FPassing clouds.7 mph42%29.92 "Hg10 mi
10:53 PM85 °FPartly cloudy.7 mph42%29.92 "Hg10 mi
9:53 PM87 °FPassing clouds.8 mph37%29.91 "Hg10 mi
8:53 PM89 °FBroken clouds.8 mph32%29.90 "Hg10 mi
7:53 PM93 °FBroken clouds.10 mph28%29.89 "Hg10 mi
6:53 PM96 °FBroken clouds.7 mph22%29.89 "Hg10 mi
5:53 PM97 °FBroken clouds.6 mph22%29.90 "Hg10 mi
4:53 PM96 °FBroken clouds.6 mph24%29.93 "Hg10 mi
3:53 PM96 °FBroken clouds.10 mph23%29.95 "Hg10 mi
Weather by CustomWeather, © 2015

See weather overviewHow to use our weather pages